Погода в Коноплине

Россия / Рязанская область     53°36′19″N   40°36′49″E
темп.,
°C
ветер,
м/с
пор.,
м/с
влажн.,
%
обл.,
%
осадки,
мм/ч
давл.,
гПа
погр.,
м
17 мая, пн
пн1700:00+17всв3790100 0.8 1013142
03:00+16всв479346 1.6 1013133
06:00+17в378954 0.0 1012151
09:00+22вюв466710 0.0 1012332
12:00+26юв6115198 0.0 10131236
15:00+26юв61051100 0.0 1012811
18:00+24юв613625 0.0 1011492
21:00+19вюв51375100 0.0 1011232
18 мая, вт
вт1800:00+18вюв6166379 0.0 1011301
03:00+16вюв6165856 0.0 1011313
06:00+16вюв6146675 0.0 1010264
09:00+21юв613575 0.0 1010455
12:00+25юв710455 0.0 1010867
15:00+26вюв813505 0.0 10081196
18:00+24юв71559100 0.0 1008544
21:00+19юв512706 0.0 1009281
19 мая, ср
ср1900:00+16ююв487617 0.0 1009143
03:00+15в338698 0.0 100933
06:00+15вюв3682100 0.0 1008161
09:00+19юв5867100 0.0 1009522
12:00+22юв6857100 0.0 1009853
15:00+25юв5105592 0.0 10081420
18:00+24юв49645 0.0 1007422
21:00+19в368410 0.1 1006102
20 мая, чт
чт2000:00+17ююв4119189 2.1 1007291
03:00+15ююв349553 2.1 100780
06:00+15ююв4129599 0.6 1007665
09:00+13ю489596 2.6 1008457
12:00+18ю567375 0.1 10081031
15:00+18ю6769100 0.8 10081264
18:00+17ю57758 1.0 1007849
21:00+13ю511910 1.3 1008341
21 мая, пт
пт2100:00+12ююз612930 0.0 1009430
03:00+11ююз5119516 0.0 1010328
06:00+12ююв51492100 0.0 1010585
09:00+15ююз81481100 0.1 10111258
12:00+14ююз7118789 0.4 1012905
15:00+17юз8127334 1.8 10111364
18:00+16зюз6117822 1.0 10121189
21:00+12зюз8138073 1.0 1014785